Theta_e
328 330 329 329 331 332 333 334 336 336 337 338 338 340 341 342 342 343 342 342 343 342 343 344 345 346 345 345 346 347 347 346 346 345 344 343 343 343 342 341 341 341 341 343 344 345 346 348 348 351 355 356 357 357 356 358 359 359 358 360 358 358 355
328 330 331 331 331 333 334 335 336 337 338 338 338 340 341 341 342 342 342 342 343 342 343 344 346 345 345 345 346 346 346 346 347 349 346 346 348 345 343 342 342 342 342 342 344 345 346 346 349 349 352 356 357 356 354 355 357 357 358 359 358 357 359
327 329 331 331 333 333 335 337 337 338 339 339 339 340 340 341 343 343 343 342 342 343 343 344 346 345 346 346 345 346 346 346 346 346 345 344 345 345 345 344 344 343 342 343 344 343 346 345 349 350 351 353 355 355 354 354 356 357 358 359 359 357 357
327 328 329 332 333 334 336 337 338 338 339 339 339 340 340 342 343 344 344 343 342 343 342 343 345 345 346 345 345 345 345 346 346 345 345 345 345 346 346 345 345 345 344 343 344 345 344 346 347 349 355 351 352 354 354 354 355 357 357 358 357 356 356
328 328 329 330 331 333 335 336 337 338 340 343 342 341 341 342 343 344 345 345 344 343 343 344 345 346 346 346 346 346 346 346 346 346 346 346 346 346 346 345 345 345 345 345 346 347 347 347 346 348 350 352 351 351 353 354 354 357 357 357 356 356 355
327 327 328 330 331 333 335 337 339 340 340 340 341 340 341 343 343 344 344 345 344 344 344 345 345 346 345 346 346 346 347 347 347 347 346 346 346 345 345 345 346 346 346 346 348 347 347 347 347 348 348 350 350 350 351 352 353 355 357 357 357 357 356
327 327 328 329 330 332 334 336 338 339 340 340 341 342 343 343 343 344 344 345 346 344 343 343 344 345 345 346 346 347 346 346 346 346 347 347 347 345 345 346 347 346 347 349 348 349 348 347 348 348 348 349 351 350 351 351 353 355 357 356 356 356 358
327 328 328 329 330 332 333 336 337 338 339 339 339 340 340 342 344 344 345 345 345 345 344 344 344 345 345 346 346 345 346 346 347 347 347 347 346 346 346 345 346 347 347 346 347 349 348 348 348 349 349 348 349 351 350 351 352 353 355 355 355 356 355
328 328 329 329 330 331 332 334 336 337 338 338 338 339 340 341 343 344 344 345 346 345 346 347 344 344 346 346 345 345 346 347 347 347 347 346 346 346 346 346 346 348 346 345 345 348 348 348 349 349 349 349 349 350 351 351 352 354 356 355 355 356 356
329 330 331 332 331 332 332 334 335 336 337 337 338 339 340 342 344 345 345 345 345 345 347 348 346 346 345 345 346 346 346 346 347 347 346 345 346 346 346 346 346 347 346 346 346 345 347 348 348 349 349 349 351 351 351 351 352 353 355 355 355 356 356
327 329 330 332 332 333 334 335 336 336 337 337 338 339 340 339 338 340 343 346 346 346 347 347 347 345 344 345 345 346 346 346 347 346 346 346 346 346 346 346 345 346 346 346 345 345 346 348 348 348 348 348 350 351 351 352 352 352 353 355 356 356 356
325 327 328 330 331 333 333 335 337 336 337 338 338 338 337 337 340 341 343 345 347 345 345 346 347 346 346 346 345 345 346 346 346 346 346 346 346 346 346 346 345 344 346 345 345 345 345 346 347 348 347 349 350 351 352 352 353 353 353 355 356 357 357
325 326 327 329 332 333 334 334 335 336 337 338 338 338 336 336 337 340 342 344 347 346 346 346 346 346 346 347 347 346 346 346 346 346 346 346 346 346 346 345 345 344 344 346 344 344 344 345 346 350 348 349 350 350 351 352 352 353 353 354 357 357 357
333 326 328 329 330 333 334 334 335 335 336 337 338 338 337 337 337 338 339 341 345 346 346 347 347 346 347 347 347 347 347 347 347 347 347 347 347 346 345 345 345 345 345 346 344 343 343 344 344 346 349 349 350 351 353 353 353 353 354 355 356 357 357
326 326 327 329 329 330 333 334 334 335 336 338 338 338 339 338 338 339 340 341 344 346 346 347 347 346 347 347 347 347 348 348 349 348 348 348 346 345 345 345 345 345 345 346 345 345 344 344 345 346 348 349 350 351 352 352 352 353 353 354 355 357 357
324 326 328 329 330 332 334 336 335 335 336 337 338 338 338 339 339 339 339 341 343 344 346 347 346 346 346 346 346 348 348 348 348 348 347 347 346 346 345 345 345 345 344 344 345 345 346 345 345 345 346 348 349 350 351 352 352 355 356 356 356 357 356
324 326 327 329 330 332 335 336 336 336 336 337 338 338 338 339 340 341 341 341 342 343 345 346 345 346 346 346 347 347 348 347 347 347 345 345 346 346 345 345 345 345 344 344 344 344 345 345 343 344 345 346 347 348 349 349 352 353 342 343 351 358 357
325 326 327 329 331 332 334 335 335 335 335 336 336 337 338 338 339 340 341 342 342 343 345 345 344 344 344 345 346 347 347 346 346 346 346 345 344 345 345 345 345 344 344 344 343 344 345 345 344 345 345 347 347 347 347 348 349 340 339 341 342 356 357
325 327 328 328 331 333 334 335 336 336 336 335 335 336 338 339 339 339 341 341 341 343 341 341 341 341 341 342 343 343 345 345 345 345 345 346 346 346 345 345 344 344 344 344 345 345 344 344 344 345 345 345 345 345 347 348 343 336 337 338 338 345 357
326 327 328 329 331 332 332 333 334 336 337 337 337 337 338 339 339 339 340 340 340 340 339 339 339 339 339 340 341 342 343 344 345 344 345 345 346 347 347 345 344 344 345 345 346 345 343 343 343 344 345 345 345 346 346 347 346 335 334 334 336 340 351
327 328 329 329 330 331 332 334 336 337 337 337 337 337 337 338 339 337 337 337 337 337 337 338 338 338 338 339 340 341 342 342 343 343 344 345 345 346 346 346 345 345 345 345 345 344 343 342 342 343 345 345 345 345 345 346 338 332 331 330 332 336 350
327 329 330 331 331 332 333 335 336 336 336 338 339 337 336 336 337 338 338 339 338 337 337 336 336 337 338 339 340 340 341 342 342 343 344 345 344 344 344 345 346 345 346 347 346 346 345 344 344 343 343 344 344 344 344 346 334 330 329 328 330 336 352
330 331 333 333 334 333 335 337 338 337 337 336 336 335 335 337 339 339 339 339 339 339 338 337 336 336 337 340 340 341 341 342 342 343 343 344 344 344 344 345 345 346 347 346 346 345 345 344 343 343 342 343 343 343 344 345 337 327 325 325 326 337 351
332 334 335 336 336 336 336 337 337 337 336 334 334 334 335 338 339 339 338 338 339 338 337 337 337 337 337 338 340 342 342 342 342 342 343 343 343 344 344 345 345 345 347 345 345 344 345 345 345 344 343 342 342 343 343 344 339 324 322 322 325 342 349
334 335 337 337 338 337 337 337 337 338 336 333 333 334 336 337 337 337 337 338 337 337 335 335 336 336 337 338 339 340 341 342 341 341 342 342 342 342 342 343 343 341 339 339 341 343 344 346 345 344 343 343 343 344 344 345 338 319 320 320 324 340 350
335 336 337 339 339 339 338 338 339 335 333 332 332 335 335 335 334 336 335 337 338 337 337 339 341 342 341 341 340 341 342 342 342 342 341 340 340 340 339 339 338 337 340 340 340 341 342 343 342 341 341 341 342 343 345 344 341 329 317 319 322 331 348
336 337 337 338 339 343 337 337 336 334 333 332 333 335 335 335 336 336 338 339 338 339 340 340 341 340 339 338 338 338 337 337 337 336 337 337 337 339 340 339 339 338 340 340 340 339 339 338 338 339 339 338 339 339 340 341 340 333 315 316 320 326 335
335 337 340 343 344 339 335 335 332 331 331 331 333 334 334 334 335 336 338 338 337 338 338 338 337 337 337 336 335 335 334 335 336 335 335 335 335 333 334 336 340 340 340 340 340 338 338 337 337 336 336 336 337 338 339 340 340 335 318 316 316 320 324
334 335 336 337 337 338 335 333 332 331 332 333 335 334 333 335 337 337 338 336 336 336 336 336 336 336 335 335 334 334 334 334 334 334 334 333 333 333 332 333 336 338 339 339 339 338 337 338 337 336 335 335 335 335 337 338 339 327 328 317 315 316 321
332 333 334 335 336 337 338 331 331 331 332 334 335 333 332 335 337 338 336 335 336 336 336 336 336 335 334 334 333 333 333 334 333 333 333 333 333 333 332 332 332 333 334 335 336 336 336 336 337 335 335 334 332 332 335 337 337 326 323 322 316 315 318
333 334 334 334 334 339 336 331 331 330 331 334 334 332 331 334 338 337 335 335 336 335 334 334 334 334 333 332 332 332 333 333 333 332 333 333 333 331 331 331 331 331 330 331 330 329 329 328 330 331 331 330 329 329 328 328 329 328 323 319 317 316 315
332 332 333 333 334 338 333 331 330 330 331 332 333 331 333 334 339 337 335 337 337 335 335 334 334 333 331 331 331 332 333 332 331 329 328 328 331 332 331 330 330 329 329 329 328 328 327 328 329 330 329 326 325 323 322 322 321 321 322 323 322 318 314
331 332 332 332 334 338 331 330 329 328 329 330 331 332 334 334 338 337 336 336 336 335 335 335 334 332 331 330 331 332 332 331 328 326 323 321 320 322 327 329 329 328 328 327 327 327 326 326 326 326 326 325 323 322 321 320 320 321 322 322 322 323 323
330 331 331 331 333 332 329 329 329 329 329 330 331 333 335 336 337 337 337 336 336 335 335 334 333 331 330 330 331 331 329 328 329 325 321 318 316 314 315 318 323 325 325 325 326 326 326 326 326 326 325 324 323 322 321 320 321 322 322 322 322 322 321
330 331 330 330 331 331 329 329 329 328 329 331 331 333 334 335 337 337 337 336 335 334 334 334 333 331 330 331 331 329 327 324 323 322 321 319 316 313 312 312 313 317 324 324 324 327 326 325 325 326 326 325 325 323 321 321 320 321 319 323 317 320 320
329 329 329 329 330 329 329 331 328 328 329 329 330 333 333 334 336 337 337 335 334 334 334 334 332 331 330 329 327 326 325 324 323 322 321 320 319 319 317 311 303 305 316 320 317 310 307 312 324 326 326 325 325 326 323 322 322 311 306 305 305 305 309
329 329 329 329 329 328 328 327 331 330 331 330 332 333 333 334 335 335 336 335 334 334 334 333 332 329 327 328 327 326 325 323 322 321 321 322 322 323 323 322 318 302 300 307 309 304 300 300 302 307 314 324 319 314 308 308 304 301 301 301 302 302 302
331 330 330 329 329 328 328 329 330 330 330 329 331 332 333 334 334 335 336 335 334 334 333 332 330 328 326 327 328 328 325 323 323 322 322 322 322 323 323 322 321 319 305 300 302 302 299 298 300 301 305 309 314 317 312 306 301 300 300 300 301 301 301
Wind_Speed
9 8 5 5 8 10 10 10 10 10 11 10 10 11 11 10 10 10 10 11 11 10 10 10 11 9 10 9 9 8 8 7 7 7 6 6 6 6 6 5 6 6 5 5 6 6 7 6 6 6 5 6 6 6 6 5 5 4 4 4 4 4 4
8 8 6 5 6 7 8 10 10 9 8 8 8 9 9 10 10 11 11 12 13 13 13 11 10 10 10 10 9 9 9 9 8 6 6 6 5 5 6 6 6 6 6 6 6 6 5 6 6 6 7 6 6 6 6 6 6 5 4 4 4 4 4
5 8 8 5 5 5 6 6 7 8 9 8 7 7 9 10 11 12 11 11 12 11 10 11 12 11 10 9 9 10 10 9 8 9 8 7 7 7 6 6 6 5 6 6 6 6 5 5 6 6 6 6 6 6 6 6 6 5 5 5 5 5 5
4 4 5 6 8 9 9 11 11 9 8 9 9 9 9 9 9 8 8 11 12 10 12 11 11 11 10 11 10 10 10 10 10 9 8 8 7 6 6 6 5 5 5 6 6 6 6 7 7 6 6 6 7 6 6 7 5 5 5 5 5 5 5
3 3 3 5 6 6 7 8 8 6 3 2 2 4 6 7 8 10 9 7 8 11 13 13 10 9 9 9 7 7 9 10 9 9 8 8 8 7 7 7 6 6 7 6 6 7 6 6 6 6 7 7 7 5 6 6 6 5 5 5 5 5 5
6 5 5 6 5 6 7 7 6 9 4 3 8 6 6 6 7 10 11 12 10 9 7 7 9 10 10 9 8 8 8 9 9 9 9 8 8 7 7 7 7 7 7 7 6 6 8 7 7 7 7 6 6 6 5 6 5 5 5 5 5 5 4
6 6 6 6 6 6 7 7 8 12 13 12 14 10 7 7 9 10 9 10 11 10 10 10 10 10 9 9 9 9 10 9 9 9 8 8 8 8 8 7 7 7 6 5 6 6 7 7 8 7 7 7 6 6 6 6 6 5 5 5 6 5 5
6 6 5 6 6 5 6 7 10 12 13 12 10 11 12 10 8 8 8 9 9 8 9 10 10 10 9 8 9 11 9 9 8 7 7 9 8 8 7 7 7 7 6 7 7 7 7 8 6 6 7 7 7 6 7 6 7 6 5 6 6 6 4
5 5 6 6 5 5 5 6 7 8 10 11 12 11 10 8 7 9 10 8 3 2 3 6 7 8 4 5 7 10 9 8 8 7 8 9 8 9 8 7 7 7 7 7 6 7 7 7 7 7 7 7 7 7 7 7 7 6 6 6 7 7 6
4 4 4 4 4 4 5 5 4 4 7 7 8 8 9 7 2 9 12 11 9 6 7 8 8 7 5 5 6 6 7 8 8 9 8 9 8 9 9 8 7 7 7 7 6 7 6 7 8 7 7 8 7 7 7 7 7 6 7 7 7 7 7
3 3 3 3 5 5 5 6 7 7 8 9 8 6 3 10 11 8 6 7 9 8 8 8 8 11 12 10 10 8 8 9 8 8 9 9 8 9 8 8 7 6 7 6 7 7 6 7 7 7 7 7 8 7 7 8 8 7 7 6 6 7 7
2 2 2 1 1 3 6 6 5 5 6 5 4 4 9 8 7 8 9 9 6 9 9 10 9 9 9 9 10 10 11 10 10 11 10 10 9 10 9 8 8 7 7 7 8 8 7 8 7 7 8 8 8 7 8 8 7 8 8 8 7 7 6
2 1 1 1 1 1 1 2 3 2 2 4 6 8 8 8 8 7 7 6 7 7 9 10 8 8 8 9 9 9 11 11 11 11 11 10 10 8 8 8 8 8 8 8 9 8 8 8 8 7 8 8 8 8 8 8 8 8 7 8 7 7 7
3 2 1 2 3 3 3 3 3 4 5 6 7 7 7 7 8 8 8 8 7 7 8 8 9 9 9 9 10 10 10 10 9 9 9 8 8 8 9 9 9 9 8 7 8 8 9 8 8 7 6 7 8 8 8 8 8 8 7 7 8 7 7
3 3 2 3 3 3 4 5 4 6 7 6 8 9 8 7 7 7 8 9 9 9 10 8 9 9 9 9 9 10 9 8 8 8 7 7 7 8 9 9 9 9 8 8 8 8 9 8 8 7 7 7 8 8 7 8 8 7 7 7 7 6 7
4 4 4 3 3 3 5 7 7 7 7 8 8 8 7 7 8 8 9 9 9 9 8 7 8 9 9 10 10 9 8 9 8 9 9 9 9 9 9 9 8 8 9 9 9 9 8 7 8 8 8 9 9 8 7 8 7 9 14 11 7 7 6
4 4 4 2 2 4 6 7 7 7 6 6 5 8 9 9 8 7 7 8 8 9 7 6 7 7 8 10 9 7 7 7 8 8 9 10 10 9 10 10 9 9 9 9 9 9 8 8 9 9 9 9 9 9 8 8 7 13 15 15 15 9 7
4 4 4 5 5 5 6 6 6 6 7 6 5 6 7 7 6 7 9 7 7 4 2 4 5 5 5 5 5 6 8 8 8 8 8 7 8 9 10 9 9 9 9 9 10 9 8 8 9 9 9 8 9 9 9 9 11 16 16 16 16 13 8
5 5 5 5 6 6 6 7 7 7 6 5 6 7 7 5 4 7 6 4 1 3 4 4 4 3 4 5 6 6 5 5 7 9 9 9 9 8 7 9 9 10 10 11 10 8 9 9 9 9 9 9 9 10 10 9 12 15 16 16 16 16 10
6 5 4 4 5 6 6 5 5 6 6 6 6 6 5 6 5 2 1 1 2 3 3 4 3 4 6 5 5 6 6 6 6 7 7 7 7 6 6 7 10 10 10 9 8 9 9 9 10 9 9 9 10 9 9 10 12 15 16 16 17 16 12
6 6 5 5 6 6 6 7 6 5 4 5 4 4 4 3 2 3 2 3 3 3 4 4 5 6 7 7 6 6 6 6 8 9 8 7 7 7 8 8 8 7 7 8 9 9 10 10 10 9 10 10 10 9 10 10 14 15 16 15 16 16 13
7 6 5 6 8 8 7 8 8 8 6 4 3 4 4 4 4 4 4 3 3 4 5 5 6 6 6 7 7 7 8 7 8 8 7 7 7 8 9 9 9 9 7 6 7 8 8 8 8 10 10 10 10 9 10 10 14 15 16 16 16 16 9
6 7 6 4 6 8 9 8 7 6 4 3 5 5 5 4 4 4 4 4 5 5 5 5 6 6 6 7 6 7 7 7 8 8 7 7 7 7 7 8 8 8 6 7 7 7 7 8 9 9 10 10 9 10 11 11 13 16 17 16 15 12 7
4 4 3 5 4 4 6 5 4 5 4 5 4 4 5 6 6 6 5 6 6 6 6 6 7 6 6 6 5 6 6 7 7 7 7 6 7 7 6 6 5 5 3 6 8 9 9 8 8 7 7 9 10 11 11 11 11 15 16 17 20 18 13
4 4 5 7 8 7 6 5 5 5 4 5 6 5 5 6 6 6 7 6 6 5 5 6 6 5 6 6 5 5 5 5 5 6 6 6 6 5 4 1 2 2 1 5 6 7 6 6 7 7 7 7 8 10 11 10 8 13 17 20 23 18 10
5 5 5 4 3 4 6 5 5 4 4 5 5 5 5 5 5 6 5 5 4 5 5 5 4 2 1 2 2 2 3 3 3 3 4 4 3 2 1 1 2 5 10 8 5 5 5 6 7 8 7 7 7 8 9 9 7 10 15 19 22 21 14
3 5 7 6 6 7 6 5 4 5 5 4 5 6 5 5 5 5 5 5 5 5 1 1 2 3 4 4 4 4 4 4 4 4 4 3 2 1 2 4 5 8 7 6 6 7 6 4 4 5 5 2 3 2 3 3 4 7 15 16 21 22 17
7 6 5 4 7 6 6 5 3 3 4 3 4 5 5 5 5 5 5 4 3 2 2 3 3 3 3 4 4 4 4 4 4 4 3 3 3 2 1 3 6 7 7 6 6 6 6 4 3 4 3 0 4 6 5 4 7 6 9 11 5 5 20
7 7 7 6 5 3 5 5 4 3 3 3 4 4 5 5 6 6 5 4 4 2 2 3 3 4 5 4 5 5 4 4 5 4 3 4 3 3 2 3 5 5 6 7 7 6 6 6 4 3 3 2 2 1 5 7 7 11 11 15 15 15 18
3 4 4 4 5 6 5 4 4 4 3 3 4 4 4 5 6 5 5 5 4 4 4 4 4 4 4 4 4 4 3 4 4 4 4 4 4 3 2 2 2 3 2 1 3 4 4 4 3 4 5 5 3 2 3 4 4 7 12 14 17 18 26
7 7 7 7 6 5 4 3 4 3 3 2 4 4 4 4 5 6 6 5 5 5 5 5 4 4 4 3 3 3 2 3 3 4 4 5 4 4 3 2 3 1 2 2 2 2 2 1 2 4 4 3 3 2 4 5 4 3 7 14 19 19 21
3 4 5 5 4 4 4 3 2 3 4 2 3 3 4 4 5 6 5 5 6 5 5 5 4 4 3 3 2 2 2 4 5 5 5 6 5 5 3 3 3 2 2 3 3 2 3 3 2 1 2 4 5 6 6 7 8 8 8 7 11 15 22
5 5 7 6 6 6 5 4 3 3 4 3 3 3 4 4 5 4 5 6 5 5 5 5 4 4 2 2 2 2 2 3 3 3 5 6 4 5 5 5 4 4 4 3 2 2 2 2 4 5 5 6 6 6 7 8 8 8 8 7 7 7 14
6 5 3 4 4 5 5 5 5 4 4 3 3 3 4 4 5 5 6 5 6 5 4 5 4 4 3 2 1 2 2 3 6 6 4 5 5 5 5 6 6 6 5 5 4 2 2 3 4 5 6 7 6 6 7 7 4 4 10 13 12 11 12
5 5 5 6 5 6 6 5 4 4 4 3 3 3 4 4 4 5 6 6 6 5 5 4 5 4 4 3 3 3 2 3 3 3 5 5 6 6 6 5 5 4 6 6 4 3 2 3 3 4 5 5 5 7 7 6 7 4 2 7 13 20 15
5 5 5 3 4 5 4 3 3 4 4 3 3 4 4 4 4 4 6 6 5 6 5 4 4 4 4 3 2 2 2 2 3 3 3 3 4 6 7 8 11 7 5 4 10 13 11 7 2 2 4 6 4 2 6 9 7 9 13 15 17 17 17
8 6 6 5 5 5 4 3 4 4 5 4 4 4 4 4 4 5 5 5 6 6 5 5 4 3 3 3 2 3 2 3 3 3 3 3 3 4 6 6 9 14 14 11 10 11 12 12 12 13 10 6 7 10 16 15 15 14 11 16 18 19 20
3 4 5 5 5 5 4 4 4 5 5 4 4 4 4 4 4 5 5 5 5 5 6 6 5 4 3 2 2 3 3 2 3 3 4 3 2 3 3 6 8 7 13 14 15 15 14 12 12 13 14 12 10 11 9 12 15 14 15 16 19 20 20
Wind_Direction
174 179 184 196 189 183 177 179 177 179 181 181 178 173 172 172 172 170 172 177 184 180 186 185 189 189 191 192 193 189 186 176 179 186 186 188 192 185 191 199 197 203 196 193 206 205 219 209 205 210 210 213 215 218 220 216 210 203 200 204 212 223 232
176 176 173 190 200 184 177 177 177 176 176 179 177 177 177 177 170 176 179 180 184 185 184 186 186 192 194 195 191 189 185 183 178 187 188 196 197 194 194 193 197 201 200 207 208 216 218 218 202 207 211 210 217 216 214 212 211 206 196 194 198 213 205
175 179 180 165 185 185 170 161 171 179 177 172 169 173 186 186 181 181 175 176 182 185 185 187 190 190 193 193 192 194 189 182 183 186 191 196 197 198 197 196 200 199 204 209 212 216 207 215 210 212 207 209 215 211 211 212 213 205 203 194 197 199 203
169 181 188 184 181 183 179 174 181 191 182 177 179 182 190 194 185 176 184 179 178 178 186 192 190 188 188 189 195 196 194 190 188 188 192 195 198 193 193 201 202 204 206 211 210 213 213 209 205 209 209 210 217 211 201 211 208 204 205 193 202 204 208
170 172 175 183 184 174 179 195 185 166 103 35 228 218 202 198 184 171 180 186 186 190 192 189 185 185 189 189 189 192 198 192 189 192 193 196 198 193 196 201 194 199 208 209 211 213 215 207 205 202 208 209 214 207 208 206 209 204 205 194 203 203 212
179 178 189 190 187 186 187 186 151 104 107 243 281 261 234 212 197 189 179 183 192 191 185 184 191 188 190 191 192 194 194 201 197 192 193 193 194 195 200 202 196 198 204 209 202 208 208 207 204 200 201 202 208 207 207 205 213 202 204 198 209 200 198
182 183 188 197 190 187 181 170 162 160 182 203 211 229 237 219 207 203 183 181 189 186 180 187 192 190 195 187 195 195 196 195 196 195 189 187 193 200 204 204 202 201 203 194 205 201 200 206 207 201 201 201 205 205 205 210 213 207 197 197 206 202 196
174 190 201 191 196 183 186 189 181 186 192 203 209 218 222 219 203 195 186 192 189 193 192 186 186 192 194 192 194 197 198 199 196 195 192 191 190 196 199 200 204 202 193 198 205 192 199 203 200 198 199 201 203 208 206 207 212 203 194 197 202 201 190
191 189 194 200 195 182 185 201 200 198 201 206 214 219 220 221 207 198 200 201 179 154 33 31 20 360 328 239 205 202 199 195 196 194 197 200 197 197 197 200 200 194 195 199 197 193 198 198 199 199 201 207 209 210 209 209 209 203 196 201 201 200 194
195 196 208 207 195 178 173 181 191 189 207 217 225 226 218 221 23 32 35 45 65 99 147 145 146 173 221 241 250 229 205 200 197 195 197 204 206 203 199 195 196 193 201 200 193 195 201 203 201 201 200 207 212 208 212 211 211 204 202 202 201 200 197
207 207 204 206 200 185 161 164 181 196 198 206 215 215 63 68 92 115 155 171 170 167 159 175 178 188 200 194 196 205 214 210 200 199 201 205 207 212 204 199 194 192 201 198 202 202 197 201 202 203 201 204 208 210 210 212 208 208 207 205 201 201 194
207 193 209 208 165 151 177 188 188 194 202 200 189 98 97 122 136 156 182 193 169 171 183 190 193 199 201 205 197 195 202 210 208 208 207 207 208 210 209 205 200 194 198 195 204 205 202 202 197 200 203 209 210 209 212 212 208 206 208 203 196 195 196
183 159 165 138 126 100 101 129 181 166 58 62 91 125 142 153 168 174 180 184 191 189 189 196 189 196 199 211 212 205 204 205 209 209 208 208 213 211 208 208 206 201 203 198 203 201 205 206 206 206 205 209 208 210 211 211 207 211 209 207 198 195 191
160 131 127 135 143 139 155 155 119 103 127 139 133 136 160 179 182 185 187 199 205 200 201 196 189 196 201 204 212 214 214 212 212 214 213 211 209 211 212 210 210 211 211 204 204 209 209 208 207 208 205 205 206 210 208 204 205 206 209 204 201 195 194
165 177 185 177 177 158 148 123 137 159 170 164 154 155 161 171 185 191 201 201 203 203 205 196 194 197 201 204 209 213 209 206 207 206 208 208 207 212 214 212 212 211 209 207 211 212 215 212 210 209 207 209 209 208 205 203 204 203 199 201 200 197 192
178 184 189 200 192 170 135 143 164 181 186 182 178 158 162 180 191 196 201 204 203 205 204 185 201 200 204 209 214 211 201 196 196 198 197 200 205 208 210 213 213 212 211 213 213 216 214 213 212 213 211 211 210 207 206 208 208 203 201 199 191 189 189
185 190 192 203 213 150 147 163 174 180 187 194 177 173 183 192 191 195 209 212 205 209 203 189 201 207 211 218 217 208 202 202 207 198 196 199 203 205 206 209 209 211 214 216 217 218 219 218 218 218 217 213 210 211 211 214 211 207 201 202 198 184 181
195 203 193 187 186 158 160 168 176 187 198 194 187 191 198 203 196 192 213 210 207 193 134 188 215 220 230 248 241 220 207 208 210 213 217 206 206 205 207 206 206 211 212 214 217 218 215 220 221 220 218 215 214 215 216 218 218 208 205 201 198 191 178
205 204 202 173 170 175 176 182 192 200 209 197 187 202 214 203 196 217 221 218 110 100 135 159 185 206 231 229 229 227 225 223 216 219 221 220 219 215 207 203 205 210 211 214 215 211 210 217 219 223 221 217 216 220 219 223 220 212 207 202 195 192 169
214 211 191 163 172 179 188 189 206 218 210 205 198 197 196 197 212 230 77 111 111 137 133 155 184 209 236 243 243 240 224 224 234 236 234 234 235 232 225 219 219 214 211 213 210 210 214 213 216 221 222 220 219 223 224 221 223 210 207 201 195 188 176
210 205 203 151 167 183 186 190 198 206 219 222 196 168 165 183 141 90 108 156 179 176 174 184 201 209 213 226 238 247 250 239 233 237 234 228 231 234 233 230 236 236 227 217 209 209 212 212 213 218 221 223 220 222 226 227 220 209 205 199 189 185 174
205 190 197 194 174 180 177 187 190 190 202 202 130 116 131 155 152 146 158 171 190 202 201 203 214 228 225 228 224 225 231 235 237 237 237 236 233 231 232 233 234 235 231 234 238 227 220 220 216 219 221 222 219 218 227 229 218 207 203 192 183 176 173
182 199 202 192 160 179 188 186 182 193 180 141 134 134 144 159 161 156 163 190 215 217 224 218 229 235 234 235 231 231 230 230 236 238 237 235 235 235 236 237 239 241 228 229 232 234 233 232 222 222 221 222 219 218 225 230 217 203 197 190 172 164 169
190 186 151 134 145 145 163 166 163 177 158 147 143 138 152 161 163 166 184 204 215 222 231 234 241 249 252 257 255 247 237 234 233 235 235 233 239 236 231 229 235 253 221 225 231 229 227 231 239 241 235 226 222 217 221 229 215 196 192 181 173 177 174
180 166 161 166 157 150 161 166 160 153 129 137 143 155 159 160 162 170 196 208 211 213 225 236 249 253 251 259 275 279 278 263 250 249 245 243 245 247 253 246 188 110 250 217 215 222 211 207 217 230 227 231 229 230 229 233 218 190 187 181 183 183 170
155 127 119 123 74 121 137 137 128 120 136 160 151 153 160 157 156 175 192 206 204 209 222 232 248 268 299 325 306 304 342 335 289 266 258 256 262 287 258 121 123 208 234 234 230 232 212 207 202 210 219 213 218 219 221 224 212 189 193 190 186 177 165
97 130 147 148 144 137 135 153 157 168 171 146 139 153 169 169 159 165 170 181 196 210 203 78 39 42 40 41 37 38 44 41 41 39 39 33 351 258 189 182 201 218 233 239 227 239 248 235 236 232 236 199 243 232 224 233 223 198 195 199 194 182 164
112 97 94 118 139 135 136 147 130 99 84 109 140 149 164 159 164 164 164 161 162 126 64 56 50 58 55 53 49 40 37 41 43 48 35 29 29 34 354 231 217 216 224 234 227 223 235 235 239 244 269 104 189 225 247 242 212 165 185 213 213 146 121
146 148 140 132 125 143 143 154 155 122 114 130 142 150 164 160 156 169 168 159 150 130 104 83 75 75 69 56 54 50 40 33 31 34 35 32 31 16 331 285 256 227 212 222 230 230 229 228 219 216 230 214 164 138 210 212 212 183 181 178 172 175 139
115 104 102 105 139 157 152 147 117 126 123 138 151 160 164 163 163 171 159 150 138 135 115 112 99 92 83 75 64 52 37 48 41 33 30 25 20 1 310 288 288 320 321 286 229 224 228 237 235 214 218 220 172 167 200 204 209 181 171 172 170 175 163
171 166 156 150 152 159 134 152 146 139 134 138 161 166 170 184 164 171 162 160 144 148 145 137 132 117 111 107 111 90 67 71 65 51 39 28 15 25 16 353 349 0 24 97 103 116 113 99 150 206 196 178 171 102 50 35 39 95 171 177 175 182 176
113 108 118 124 135 153 122 126 121 141 149 159 186 173 171 193 161 174 167 164 157 150 154 146 138 123 122 114 91 91 89 85 69 53 43 36 25 22 13 25 24 42 30 56 79 88 144 184 193 252 101 110 74 68 63 56 58 53 57 40 93 71 38
162 160 159 160 167 152 133 161 163 166 168 179 203 182 170 169 164 150 150 164 146 150 156 151 131 122 100 90 112 108 85 90 89 73 53 45 21 11 16 14 11 15 23 26 51 88 110 94 107 119 127 122 109 106 103 101 102 98 86 65 29 19 94
164 151 163 143 154 137 134 161 178 172 167 182 196 179 161 169 164 149 154 150 154 152 156 147 141 133 136 136 107 72 57 70 78 80 71 59 43 32 13 15 12 24 24 7 7 35 90 126 133 135 138 140 138 134 127 123 136 132 138 135 124 119 111
175 168 154 152 157 154 172 174 179 172 159 175 184 165 164 170 155 155 152 149 148 147 151 147 131 126 126 132 115 68 57 63 68 80 90 87 75 67 56 36 25 17 20 20 354 13 62 111 106 125 148 145 135 127 111 124 131 141 112 112 136 139 136
161 154 164 157 141 155 158 166 150 150 150 167 168 158 162 153 150 144 151 150 149 154 154 144 128 123 132 124 114 106 75 70 79 80 88 95 103 98 82 77 69 50 39 12 16 44 40 40 84 109 127 101 56 56 146 148 140 119 120 113 93 79 88
160 169 174 160 151 172 175 159 152 140 146 155 151 157 162 161 155 152 157 158 161 159 147 136 124 112 123 135 144 138 108 109 91 87 70 77 97 95 101 86 53 46 42 46 45 44 42 50 53 56 48 88 104 72 78 90 95 97 97 98 96 101 107
159 159 154 163 177 172 167 168 166 158 154 152 150 155 162 162 173 160 161 159 159 151 144 148 142 144 151 148 145 139 121 105 106 108 101 80 70 71 86 91 89 57 39 42 53 48 43 42 55 63 72 76 98 111 85 89 98 103 100 99 105 113 117